User: anonymous   Login
Location: Eckley
(40.9930°N, 75.8630°W)
Time: 05:17:35
(UTC-04:00)
Language:

Cosmos 2221 Rocket - Orbit

View from above orbital plane
View from above orbital plane
View from above satellite
View from above satellite

Ground track
Ground track

The orbit data is extracted from the following two-line orbital elements,

1 22237U 92080B   17083.88713941 +.00000058 +00000-0 +47093-5 0  9996
2 22237 082.5146 196.1357 0021104 119.2968 020.2844 14.78307461310892
Epoch (UTC): 24 March 2017 21:17:28
Eccentricity: 0.0021104
inclination: 82.5146°
perigee height: 620 km
apogee height: 649 km
right ascension of ascending node: 196.1357°
argument of perigee: 119.2968°
revolutions per day: 14.78307461
mean anomaly at epoch: 20.2844°
orbit number at epoch: 31089

The dashed part of the orbit path shows where the satellite is in the earth's shadow,  

DLR